Вернуться в каталог

QIANFAN-139

АктивенСвязьPO
NORAD 69085·PAYLOAD·🇨🇳 China

Запущен May 12, 2026 с Taiyuan Satellite Launch Center

Loading…

Ближайшие Пролёты (ближайшие 24 часа)

TLE

СвежийSource: Space-Track

Эпоха: Sep 14, 2026, 22:34 UTC

1 69085U 26104N   26257.94070560  .00000119  00000-0  16629-3 0  9992
2 69085  88.9907 332.3145 0002506 103.5381 256.6050 13.51029909 17276

Отслеживайте QIANFAN-139 в реальном времени с AllMySat

Download on the App Store